| time (UTC) | temp F | wind direction | speed knots | gust knots | rain 1hr in | rain 24hr in | rain mn in | humidity % | barometer mb |
| 20260506051309 | 50 | 276 | 3.5 | 4.3 | 0.00 | 0.00 | 0.00 | 98 | 1011.2 |
| 20260506050309 | 50 | 283 | 2.6 | 4.3 | 0.00 | 0.00 | 0.00 | 98 | 1011.2 |
| 20260506044309 | 50 | 269 | 0.9 | 2.6 | 0.00 | 0.00 | 0.00 | 97 | 1011.2 |
| 20260506043309 | 50 | 240 | 0.9 | 2.6 | 0.00 | 0.00 | 0.00 | 97 | 1011.2 |
| 20260506042309 | 50 | 241 | 0.9 | 3.5 | 0.00 | 0.00 | 0.00 | 97 | 1011.1 |
| 20260506041309 | 50 | 269 | 2.6 | 3.5 | 0.00 | 0.00 | 0.00 | 97 | 1011.1 |
| 20260506040309 | 50 | 269 | 0.9 | 4.3 | 0.00 | 0.00 | 0.00 | 97 | 1011.1 |
| 20260506035309 | 50 | 288 | 3.5 | 5.2 | 0.00 | 0.00 | 0.00 | 97 | 1011.1 |
| 20260506034309 | 50 | 274 | 2.6 | 5.2 | 0.00 | 0.00 | 0.00 | 97 | 1011.2 |
| 20260506033310 | 50 | 262 | 3.5 | 5.2 | 0.00 | 0.00 | 0.00 | 98 | 1011.2 |
| 20260506032309 | 50 | 272 | 3.5 | 5.2 | 0.00 | 0.00 | 0.00 | 98 | 1011.3 |
| 20260506031309 | 51 | 297 | 2.6 | 5.2 | 0.00 | 0.00 | 0.00 | 98 | 1011.3 |
| 20260506030309 | 51 | 274 | 3.5 | 6.1 | 0.00 | 0.00 | 0.00 | 97 | 1011.3 |
| 20260506023312 | 51 | 46 | 0.0 | 0.9 | 0.00 | 0.00 | 0.00 | 97 | 1011.3 |
| 20260506022311 | 51 | 223 | 0.0 | 1.7 | 0.00 | 0.00 | 0.00 | 97 | 1011.4 |
| 20260506021312 | 51 | 206 | 0.9 | 1.7 | 0.00 | 0.00 | 0.00 | 97 | 1011.4 |
| 20260506020311 | 51 | 1 | 0.0 | 2.6 | 0.00 | 0.00 | 0.00 | 97 | 1011.4 |
| 20260506015311 | 51 | 340 | 0.9 | 2.6 | 0.00 | 0.00 | 0.00 | 97 | 1011.4 |
| 20260506014312 | 51 | 306 | 1.7 | 2.6 | 0.00 | 0.00 | 0.00 | 97 | 1011.5 |
| 20260506013312 | 51 | 293 | 2.6 | 3.5 | 0.00 | 0.00 | 0.00 | 97 | 1011.5 |
| 20260506012311 | 51 | 28 | 0.0 | 1.7 | 0.00 | 0.00 | 0.00 | 97 | 1011.6 |
| 20260506011312 | 51 | 314 | 0.0 | 2.6 | 0.00 | 0.00 | 0.00 | 97 | 1011.6 |
| 20260506010311 | 51 | 349 | 0.9 | 2.6 | 0.00 | 0.00 | 0.00 | 97 | 1011.7 |
| 20260506005312 | 51 | 15 | 1.7 | 3.5 | 0.00 | 0.00 | 0.00 | 97 | 1011.8 |
| 20260506003311 | 51 | 324 | 1.7 | 2.6 | 0.00 | 0.00 | 0.00 | 97 | 1011.8 |
| 20260506002311 | 51 | 314 | 1.7 | 2.6 | 0.00 | 0.00 | 0.00 | 97 | 1011.8 |
| 20260506001311 | 51 | 314 | 1.7 | 2.6 | 0.00 | 0.00 | 0.00 | 97 | 1011.9 |
| 20260506000311 | 51 | 314 | 1.7 | 2.6 | 0.00 | 0.00 | 0.00 | 97 | 1011.9 |
| 20260505235311 | 51 | 340 | 1.7 | 4.3 | 0.00 | 0.00 | 0.00 | 97 | 1012.0 |
| 20260505234311 | 51 | 302 | 2.6 | 4.3 | 0.00 | 0.00 | 0.00 | 97 | 1012.0 |
| 20260505233311 | 51 | 321 | 0.9 | 2.6 | 0.00 | 0.00 | 0.00 | 97 | 1012.0 |
| 20260505232311 | 51 | 347 | 2.6 | 3.5 | 0.00 | 0.00 | 0.00 | 97 | 1012.1 |
| 20260505230311 | 51 | 331 | 0.9 | 3.5 | 0.00 | 0.00 | 0.00 | 97 | 1012.2 |
| 20260505225311 | 51 | 324 | 0.9 | 2.6 | 0.00 | 0.00 | 0.00 | 97 | 1012.2 |
| 20260505224311 | 51 | 279 | 0.9 | 2.6 | 0.00 | 0.00 | 0.00 | 97 | 1012.2 |
| 20260505223311 | 51 | 283 | 0.9 | 2.6 | 0.00 | 0.00 | 0.00 | 97 | 1012.3 |
| 20260505222311 | 52 | 295 | 1.7 | 4.3 | 0.00 | 0.00 | 0.00 | 97 | 1012.3 |
| 20260505220311 | 52 | 320 | 2.6 | 3.5 | 0.00 | 0.00 | 0.00 | 97 | 1012.3 |
| 20260505215311 | 52 | 317 | 1.7 | 5.2 | 0.00 | 1.46 | 1.46 | 97 | 1012.3 |
| 20260505214311 | 51 | 314 | 2.6 | 6.1 | 0.00 | 1.46 | 1.46 | 97 | 1012.3 |
| 20260505213311 | 51 | 319 | 1.7 | 3.5 | 0.00 | 1.46 | 1.46 | 97 | 1012.5 |
| 20260505212311 | 51 | 324 | 3.5 | 5.2 | 0.00 | 1.46 | 1.46 | 97 | 1012.4 |
| 20260505210311 | 52 | 331 | 3.5 | 5.2 | 0.00 | 1.46 | 1.46 | 97 | 1012.4 |
| 20260505205311 | 52 | 295 | 3.5 | 7.0 | 0.00 | 1.46 | 1.46 | 97 | 1012.4 |
| 20260505204311 | 52 | 317 | 3.5 | 7.0 | 0.00 | 1.46 | 1.46 | 97 | 1012.4 |
| 20260505203311 | 52 | 321 | 4.3 | 7.8 | 0.00 | 1.46 | 1.46 | 97 | 1012.3 |
| 20260505202311 | 52 | 347 | 3.5 | 7.8 | 0.00 | 1.46 | 1.46 | 97 | 1012.3 |
| 20260505201311 | 52 | 309 | 4.3 | 7.8 | 0.00 | 1.46 | 1.46 | 97 | 1012.3 |
| 20260505200311 | 52 | 321 | 3.5 | 6.1 | 0.00 | 1.46 | 1.46 | 97 | 1012.1 |
| 20260505195311 | 52 | 16 | 3.5 | 8.7 | 0.00 | 1.46 | 1.46 | 97 | 1012.1 |
| 20260505194312 | 52 | 334 | 4.3 | 9.6 | 0.00 | 1.46 | 1.46 | 97 | 1012.0 |
| 20260505193311 | 52 | 305 | 5.2 | 7.8 | 0.00 | 1.46 | 1.46 | 98 | 1011.9 |
| 20260505191311 | 52 | 297 | 5.2 | 7.8 | 0.00 | 1.46 | 1.46 | 98 | 1011.9 |
| 20260505190311 | 52 | 338 | 2.6 | 6.1 | 0.00 | 1.46 | 1.46 | 98 | 1012.0 |
| 20260505185311 | 52 | 11 | 3.5 | 8.7 | 0.00 | 1.46 | 1.46 | 98 | 1011.8 |
| 20260505184311 | 52 | 18 | 3.5 | 7.0 | 0.00 | 1.46 | 1.46 | 98 | 1011.8 |
| 20260505183311 | 52 | 316 | 5.2 | 8.7 | 0.00 | 1.46 | 1.46 | 98 | 1011.8 |
| 20260505182311 | 53 | 324 | 3.5 | 7.8 | 0.00 | 1.46 | 1.46 | 98 | 1011.8 |
| 20260505181311 | 53 | 27 | 4.3 | 11.3 | 0.00 | 1.46 | 1.46 | 98 | 1011.7 |
| 20260505175311 | 53 | 340 | 4.3 | 7.8 | 0.00 | 1.46 | 1.46 | 98 | 1011.9 |
| 20260505174311 | 53 | 290 | 4.3 | 11.3 | 0.00 | 1.46 | 1.46 | 98 | 1011.9 |
| 20260505173311 | 53 | 307 | 5.2 | 9.6 | 0.00 | 1.46 | 1.46 | 99 | 1011.8 |
| 20260505172311 | 53 | 1 | 6.1 | 9.6 | 0.00 | 1.46 | 1.46 | 99 | 1011.8 |
| 20260505170311 | 54 | 37 | 4.3 | 7.8 | 0.00 | 1.46 | 1.46 | 99 | 1011.9 |
| 20260505165311 | 54 | 13 | 6.1 | 7.8 | 0.00 | 1.46 | 1.46 | 99 | 1011.9 |
| 20260505164310 | 53 | 322 | 5.2 | 9.6 | 0.01 | 1.46 | 1.46 | 99 | 1011.9 |
| 20260505163311 | 54 | 4 | 5.2 | 8.7 | 0.02 | 1.46 | 1.46 | 99 | 1011.9 |
| 20260505162310 | 53 | 354 | 5.2 | 8.7 | 0.02 | 1.46 | 1.46 | 99 | 1011.8 |
| 20260505161311 | 53 | 348 | 3.5 | 13.0 | 0.02 | 1.46 | 1.46 | 99 | 1012.0 |
| 20260505160311 | 53 | 351 | 4.3 | 10.4 | 0.03 | 1.46 | 1.46 | 99 | 1011.9 |
| 20260505153310 | 53 | 354 | 6.1 | 10.4 | 0.02 | 1.45 | 1.45 | 99 | 1011.9 |
| 20260505152310 | 53 | 333 | 3.5 | 10.4 | 0.03 | 1.44 | 1.44 | 99 | 1011.9 |
| 20260505150310 | 53 | 21 | 4.3 | 9.6 | 0.04 | 1.43 | 1.43 | 99 | 1011.8 |
| 20260505140310 | 53 | 18 | 4.3 | 9.6 | 0.06 | 1.39 | 1.39 | 99 | 1011.8 |
| 20260505130310 | 53 | 309 | 2.6 | 7.8 | 0.05 | 1.34 | 1.34 | 99 | 1011.8 |
| 20260505124310 | 53 | 44 | 5.2 | 8.7 | 0.04 | 1.32 | 1.32 | 99 | 1011.7 |
| 20260505123312 | 53 | 331 | 4.3 | 9.6 | 0.03 | 1.31 | 1.31 | 99 | 1011.7 |
| 20260505122310 | 53 | 32 | 3.5 | 7.8 | 0.03 | 1.31 | 1.31 | 99 | 1011.8 |
| 20260505121310 | 53 | 11 | 3.5 | 7.8 | 0.03 | 1.30 | 1.30 | 99 | 1011.7 |
| 20260505120310 | 53 | 11 | 2.6 | 8.7 | 0.03 | 1.29 | 1.29 | 99 | 1011.8 |
| 20260505115310 | 53 | 20 | 4.3 | 8.7 | 0.04 | 1.29 | 1.29 | 99 | 1011.8 |
| 20260505114310 | 53 | 46 | 2.6 | 6.1 | 0.03 | 1.28 | 1.28 | 99 | 1011.8 |
| 20260505113310 | 53 | 300 | 2.6 | 8.7 | 0.04 | 1.28 | 1.28 | 99 | 1011.9 |
| 20260505112310 | 53 | 25 | 2.6 | 8.7 | 0.03 | 1.28 | 1.28 | 99 | 1011.8 |
| 20260505111310 | 53 | 349 | 3.5 | 6.1 | 0.04 | 1.27 | 1.27 | 99 | 1011.9 |
| 20260505110310 | 53 | 124 | 1.7 | 9.6 | 0.04 | 1.26 | 1.26 | 99 | 1011.9 |
| 20260505101310 | 53 | 178 | 0.9 | 7.0 | 0.07 | 1.23 | 1.23 | 99 | 1011.7 |
| 20260505095310 | 53 | 13 | 2.6 | 8.7 | 0.08 | 1.21 | 1.21 | 99 | 1011.8 |
| 20260505094310 | 53 | 326 | 5.2 | 9.6 | 0.08 | 1.20 | 1.20 | 99 | 1011.7 |
| 20260505093310 | 53 | 68 | 2.6 | 6.1 | 0.08 | 1.19 | 1.19 | 99 | 1011.5 |
| 20260505092310 | 53 | 41 | 2.6 | 7.8 | 0.09 | 1.17 | 1.17 | 99 | 1011.6 |
| 20260505091310 | 53 | 51 | 2.6 | 7.0 | 0.09 | 1.16 | 1.16 | 99 | 1011.6 |
| 20260505090310 | 53 | 4 | 3.5 | 7.8 | 0.11 | 1.15 | 1.15 | 98 | 1011.5 |
| 20260505085310 | 53 | 314 | 2.6 | 8.7 | 0.13 | 1.13 | 1.13 | 98 | 1011.5 |
| 20260505084310 | 53 | 84 | 2.6 | 8.7 | 0.13 | 1.13 | 1.13 | 98 | 1011.6 |
| 20260505083310 | 53 | 4 | 4.3 | 8.7 | 0.16 | 1.11 | 1.11 | 98 | 1011.5 |
| 20260505082311 | 52 | 23 | 4.3 | 12.2 | 0.18 | 1.09 | 1.09 | 98 | 1011.4 |
| 20260505081310 | 52 | 1 | 3.5 | 6.1 | 0.20 | 1.06 | 1.06 | 98 | 1011.5 |
| 20260505080309 | 52 | 307 | 4.3 | 6.1 | 0.20 | 1.04 | 1.04 | 98 | 1011.5 |
| 20260505075310 | 51 | 1 | 1.7 | 4.3 | 0.20 | 1.01 | 1.01 | 98 | 1011.6 |
| 20260505074309 | 51 | 46 | 2.6 | 6.1 | 0.20 | 0.99 | 0.99 | 98 | 1011.5 |
| 20260505073309 | 51 | 348 | 3.5 | 7.8 | 0.20 | 0.95 | 0.95 | 98 | 1011.6 |
| 20260505072309 | 51 | 18 | 3.5 | 6.1 | 0.18 | 0.91 | 0.91 | 98 | 1011.5 |
| 20260505071309 | 51 | 354 | 2.6 | 5.2 | 0.15 | 0.87 | 0.87 | 98 | 1011.6 |
| 20260505070309 | 51 | 351 | 3.5 | 5.2 | 0.13 | 0.83 | 0.83 | 98 | 1011.6 |
| 20260505065309 | 51 | 353 | 3.5 | 6.1 | 0.13 | 0.81 | 0.81 | 98 | 1011.6 |
| 20260505063309 | 51 | 334 | 2.6 | 6.1 | 0.10 | 0.76 | 0.76 | 98 | 1011.7 |
| 20260505062309 | 51 | 295 | 3.5 | 7.0 | 0.09 | 0.72 | 0.72 | 98 | 1011.7 |
| 20260505061309 | 51 | 284 | 3.5 | 6.1 | 0.11 | 0.72 | 0.72 | 98 | 1011.6 |
| 20260505060311 | 51 | 13 | 2.6 | 7.0 | 0.11 | 0.70 | 0.70 | 97 | 1011.6 |
| 20260505055309 | 51 | 314 | 4.3 | 7.0 | 0.11 | 0.69 | 0.69 | 97 | 1011.6 |
| 20260505054309 | 51 | 300 | 3.5 | 6.1 | 0.10 | 0.67 | 0.67 | 97 | 1011.6 |
| 20260505053309 | 51 | 46 | 2.6 | 5.2 | 0.10 | 0.65 | 0.65 | 97 | 1011.8 |